| time (UTC) | temp F | wind direction | speed knots | gust knots | rain 1hr in | rain 24hr in | rain mn in | humidity % | barometer mb |
| 20260507213515 | 92 | 273 | 2.6 | 7.8 | 0.00 | 0.00 | 0.00 | 11 | 1010.3 |
| 20260507212515 | 93 | 292 | 3.5 | 7.8 | 0.00 | 0.00 | 0.00 | 11 | 1010.5 |
| 20260507211535 | 92 | 296 | 3.5 | 9.6 | 0.00 | 0.00 | 0.00 | 11 | 1010.6 |
| 20260507210515 | 91 | 292 | 1.7 | 7.8 | 0.00 | 0.00 | 0.00 | 11 | 1010.8 |
| 20260507205516 | 93 | 286 | 4.3 | 8.7 | 0.00 | 0.00 | 0.00 | 11 | 1010.9 |
| 20260507204515 | 91 | 310 | 2.6 | 7.8 | 0.00 | 0.00 | 0.00 | 12 | 1011.0 |
| 20260507203516 | 92 | 313 | 1.7 | 6.1 | 0.00 | 0.00 | 0.00 | 12 | 1011.2 |
| 20260507202515 | 92 | 312 | 1.7 | 5.2 | 0.00 | 0.00 | 0.00 | 11 | 1011.4 |
| 20260507201515 | 92 | 64 | 0.0 | 2.6 | 0.00 | 0.00 | 0.00 | 12 | 1011.6 |
| 20260507200536 | 92 | 289 | 1.7 | 4.3 | 0.00 | 0.00 | 0.00 | 11 | 1011.8 |
| 20260507195515 | 93 | 223 | 0.9 | 3.5 | 0.00 | 0.00 | 0.00 | 11 | 1011.9 |
| 20260507194516 | 91 | 227 | 1.7 | 6.1 | 0.00 | 0.00 | 0.00 | 12 | 1012.1 |
| 20260507193515 | 90 | 282 | 1.7 | 7.8 | 0.00 | 0.00 | 0.00 | 12 | 1012.2 |
| 20260507192516 | 89 | 292 | 2.6 | 7.0 | 0.00 | 0.00 | 0.00 | 13 | 1012.5 |
| 20260507191635 | 89 | 330 | 1.7 | 7.8 | 0.00 | 0.00 | 0.00 | 14 | 1012.6 |
| 20260507190556 | 88 | 324 | 0.9 | 4.3 | 0.00 | 0.00 | 0.00 | 13 | 1012.8 |
| 20260507185555 | 89 | 296 | 0.9 | 2.6 | 0.00 | 0.00 | 0.00 | 13 | 1013.0 |
| 20260507184515 | 88 | 133 | 0.9 | 4.3 | 0.00 | 0.00 | 0.00 | 14 | 1013.1 |
| 20260507183515 | 86 | 100 | 0.0 | 4.3 | 0.00 | 0.00 | 0.00 | 14 | 1013.2 |
| 20260507182556 | 86 | 330 | 0.9 | 6.1 | 0.00 | 0.00 | 0.00 | 15 | 1013.3 |
| 20260507181515 | 85 | 326 | 0.0 | 3.5 | 0.00 | 0.00 | 0.00 | 16 | 1013.4 |
| 20260507180535 | 85 | 338 | 0.9 | 5.2 | 0.00 | 0.00 | 0.00 | 16 | 1013.5 |
| 20260507175516 | 85 | 311 | 0.0 | 3.5 | 0.00 | 0.00 | 0.00 | 17 | 1013.6 |
| 20260507174535 | 85 | 331 | 0.9 | 4.3 | 0.00 | 0.00 | 0.00 | 18 | 1013.7 |
| 20260507173515 | 85 | 324 | 0.0 | 1.7 | 0.00 | 0.00 | 0.00 | 17 | 1013.9 |
| 20260507172516 | 85 | 130 | 0.9 | 3.5 | 0.00 | 0.00 | 0.00 | 18 | 1014.0 |
| 20260507171517 | 83 | 352 | 0.0 | 0.9 | 0.00 | 0.00 | 0.00 | 19 | 1014.0 |
| 20260507170517 | 83 | 334 | 0.0 | 1.7 | 0.00 | 0.00 | 0.00 | 20 | 1014.1 |
| 20260507165517 | 83 | 295 | 0.0 | 2.6 | 0.00 | 0.00 | 0.00 | 21 | 1014.1 |
| 20260507164517 | 82 | 339 | 0.0 | 0.9 | 0.00 | 0.00 | 0.00 | 22 | 1014.2 |
| 20260507163517 | 82 | 134 | 0.0 | 2.6 | 0.00 | 0.00 | 0.00 | 23 | 1014.3 |
| 20260507162517 | 80 | 156 | 0.0 | 1.7 | 0.00 | 0.00 | 0.00 | 25 | 1014.3 |
| 20260507161515 | 80 | 125 | 0.0 | 0.9 | 0.00 | 0.00 | 0.00 | 25 | 1014.4 |
| 20260507160517 | 78 | 161 | 0.0 | 1.7 | 0.00 | 0.00 | 0.00 | 26 | 1014.5 |
| 20260507155537 | 78 | 132 | 0.0 | 1.7 | 0.00 | 0.00 | 0.00 | 26 | 1014.5 |
| 20260507154516 | 77 | 132 | 0.0 | 1.7 | 0.00 | 0.00 | 0.00 | 26 | 1014.6 |
| 20260507153517 | 76 | 159 | 0.0 | 1.7 | 0.00 | 0.00 | 0.00 | 27 | 1014.7 |
| 20260507152517 | 74 | 0.0 | 2.6 | 0.00 | 0.00 | 0.00 | 29 | 1014.6 | |
| 20260507151518 | 73 | 125 | 0.9 | 2.6 | 0.00 | 0.00 | 0.00 | 29 | 1014.6 |
| 20260507150517 | 72 | 139 | 0.9 | 2.6 | 0.00 | 0.00 | 0.00 | 31 | 1014.6 |
| 20260507145517 | 70 | 143 | 0.9 | 2.6 | 0.00 | 0.00 | 0.00 | 32 | 1014.7 |
| 20260507144517 | 69 | 140 | 0.9 | 1.7 | 0.00 | 0.00 | 0.00 | 33 | 1014.7 |
| 20260507143536 | 68 | 130 | 0.9 | 2.6 | 0.00 | 0.00 | 0.00 | 34 | 1014.7 |
| 20260507142517 | 67 | 135 | 0.9 | 2.6 | 0.00 | 0.00 | 0.00 | 35 | 1014.7 |
| 20260507141517 | 65 | 128 | 0.9 | 2.6 | 0.00 | 0.00 | 0.00 | 36 | 1014.6 |
| 20260507140519 | 64 | 129 | 0.9 | 3.5 | 0.00 | 0.00 | 0.00 | 37 | 1014.6 |
| 20260507135517 | 63 | 132 | 0.9 | 2.6 | 0.00 | 0.00 | 0.00 | 38 | 1014.5 |
| 20260507134517 | 62 | 127 | 0.9 | 3.5 | 0.00 | 0.00 | 0.00 | 39 | 1014.3 |
| 20260507133517 | 61 | 132 | 1.7 | 4.3 | 0.00 | 0.00 | 0.00 | 40 | 1014.1 |
| 20260507132516 | 61 | 137 | 0.9 | 3.5 | 0.00 | 0.00 | 0.00 | 41 | 1014.0 |
| 20260507131517 | 60 | 131 | 1.7 | 3.5 | 0.00 | 0.00 | 0.00 | 42 | 1013.9 |
| 20260507130537 | 59 | 133 | 0.9 | 3.5 | 0.00 | 0.00 | 0.00 | 43 | 1013.8 |
| 20260507125516 | 58 | 135 | 0.0 | 1.7 | 0.00 | 0.00 | 0.00 | 43 | 1013.7 |
| 20260507124516 | 58 | 130 | 0.9 | 3.5 | 0.00 | 0.00 | 0.00 | 43 | 1013.8 |
| 20260507123516 | 59 | 131 | 0.0 | 2.6 | 0.00 | 0.00 | 0.00 | 44 | 1013.7 |
| 20260507122536 | 59 | 128 | 0.9 | 2.6 | 0.00 | 0.00 | 0.00 | 43 | 1013.7 |
| 20260507121536 | 59 | 133 | 0.9 | 3.5 | 0.00 | 0.00 | 0.00 | 43 | 1013.6 |
| 20260507120516 | 59 | 135 | 0.0 | 0.9 | 0.00 | 0.00 | 0.00 | 43 | 1013.7 |
| 20260507115536 | 59 | 128 | 0.9 | 2.6 | 0.00 | 0.00 | 0.00 | 42 | 1013.8 |
| 20260507114516 | 60 | 128 | 0.0 | 1.7 | 0.00 | 0.00 | 0.00 | 43 | 1013.7 |
| 20260507113517 | 59 | 133 | 0.9 | 1.7 | 0.00 | 0.00 | 0.00 | 43 | 1013.7 |
| 20260507112519 | 59 | 0.0 | 0.0 | 0.00 | 0.00 | 0.00 | 44 | 1013.7 | |
| 20260507111516 | 59 | 145 | 0.0 | 3.5 | 0.00 | 0.00 | 0.00 | 44 | 1013.7 |
| 20260507110516 | 59 | 133 | 0.0 | 1.7 | 0.00 | 0.00 | 0.00 | 49 | 1013.7 |
| 20260507105516 | 60 | 9 | 0.0 | 0.9 | 0.00 | 0.00 | 0.00 | 49 | 1013.8 |
| 20260507104516 | 60 | 0.0 | 0.0 | 0.00 | 0.00 | 0.00 | 50 | 1013.8 | |
| 20260507103537 | 60 | 0.0 | 0.0 | 0.00 | 0.00 | 0.00 | 52 | 1013.8 | |
| 20260507102517 | 59 | 0.0 | 0.0 | 0.00 | 0.00 | 0.00 | 51 | 1013.9 | |
| 20260507101517 | 60 | 0.0 | 0.0 | 0.00 | 0.00 | 0.00 | 51 | 1014.0 | |
| 20260507100537 | 60 | 0.0 | 0.0 | 0.00 | 0.00 | 0.00 | 51 | 1014.1 | |
| 20260507095516 | 60 | 0.0 | 0.0 | 0.00 | 0.00 | 0.00 | 51 | 1014.1 | |
| 20260507094516 | 60 | 0.0 | 0.0 | 0.00 | 0.00 | 0.00 | 51 | 1014.1 | |
| 20260507093516 | 61 | 0.0 | 0.0 | 0.00 | 0.00 | 0.00 | 51 | 1014.2 | |
| 20260507092517 | 61 | 0.0 | 0.0 | 0.00 | 0.00 | 0.00 | 49 | 1014.3 | |
| 20260507091516 | 61 | 0.0 | 0.0 | 0.00 | 0.00 | 0.00 | 50 | 1014.3 | |
| 20260507090516 | 61 | 0.0 | 0.0 | 0.00 | 0.00 | 0.00 | 49 | 1014.4 | |
| 20260507085517 | 61 | 0.0 | 0.0 | 0.00 | 0.00 | 0.00 | 48 | 1014.4 | |
| 20260507084517 | 62 | 0.0 | 0.0 | 0.00 | 0.00 | 0.00 | 48 | 1014.5 | |
| 20260507083516 | 62 | 0.0 | 0.0 | 0.00 | 0.00 | 0.00 | 46 | 1014.6 | |
| 20260507082516 | 62 | 0.0 | 0.0 | 0.00 | 0.00 | 0.00 | 45 | 1014.6 | |
| 20260507081517 | 63 | 0.0 | 0.0 | 0.00 | 0.00 | 0.00 | 44 | 1014.7 | |
| 20260507080516 | 63 | 0.0 | 0.0 | 0.00 | 0.00 | 0.00 | 44 | 1014.7 | |
| 20260507075537 | 64 | 0.0 | 0.0 | 0.00 | 0.00 | 0.00 | 42 | 1014.7 | |
| 20260507074516 | 64 | 0.0 | 0.0 | 0.00 | 0.00 | 0.00 | 45 | 1014.7 | |
| 20260507073536 | 65 | 0.0 | 0.0 | 0.00 | 0.00 | 0.00 | 47 | 1014.7 | |
| 20260507072516 | 65 | 0.0 | 0.0 | 0.00 | 0.00 | 0.00 | 41 | 1014.7 | |
| 20260507071517 | 67 | 0.0 | 0.0 | 0.00 | 0.00 | 0.00 | 40 | 1014.7 | |
| 20260507070517 | 67 | 9 | 0.0 | 0.9 | 0.00 | 0.00 | 0.00 | 37 | 1014.7 |
| 20260507065516 | 67 | 283 | 0.0 | 0.9 | 0.00 | 0.00 | 0.00 | 40 | 1014.8 |
| 20260507064516 | 67 | 0.0 | 0.0 | 0.00 | 0.00 | 0.00 | 38 | 1014.8 | |
| 20260507063516 | 67 | 0.0 | 0.0 | 0.00 | 0.00 | 0.00 | 40 | 1014.7 | |
| 20260507062537 | 68 | 0.0 | 0.0 | 0.00 | 0.00 | 0.00 | 38 | 1014.7 | |
| 20260507061558 | 68 | 0.0 | 0.0 | 0.00 | 0.00 | 0.00 | 37 | 1014.6 | |
| 20260507060519 | 68 | 0.0 | 0.0 | 0.00 | 0.00 | 0.00 | 36 | 1014.6 | |
| 20260507055516 | 68 | 0.0 | 0.0 | 0.00 | 0.00 | 0.00 | 34 | 1014.6 | |
| 20260507054515 | 68 | 0.0 | 0.0 | 0.00 | 0.00 | 0.00 | 35 | 1014.5 | |
| 20260507053517 | 69 | 0.0 | 0.0 | 0.00 | 0.00 | 0.00 | 34 | 1014.6 | |
| 20260507052519 | 69 | 0.0 | 0.0 | 0.00 | 0.00 | 0.00 | 34 | 1014.5 | |
| 20260507051517 | 69 | 0.0 | 0.0 | 0.00 | 0.00 | 0.00 | 34 | 1014.5 | |
| 20260507050516 | 69 | 0.0 | 0.0 | 0.00 | 0.00 | 0.00 | 35 | 1014.5 | |
| 20260507045517 | 69 | 0.0 | 0.0 | 0.00 | 0.00 | 0.00 | 36 | 1014.5 | |
| 20260507044517 | 69 | 0.0 | 0.0 | 0.00 | 0.00 | 0.00 | 34 | 1014.4 | |
| 20260507043517 | 70 | 0.0 | 0.0 | 0.00 | 0.00 | 0.00 | 32 | 1014.3 | |
| 20260507042518 | 71 | 0.0 | 0.0 | 0.00 | 0.00 | 0.00 | 32 | 1014.2 | |
| 20260507041515 | 72 | 0.0 | 0.0 | 0.00 | 0.00 | 0.00 | 30 | 1014.2 | |
| 20260507040516 | 73 | 0.0 | 0.0 | 0.00 | 0.00 | 0.00 | 28 | 1014.1 | |
| 20260507035516 | 74 | 0.0 | 0.0 | 0.00 | 0.00 | 0.00 | 27 | 1013.9 | |
| 20260507034535 | 75 | 0.0 | 0.0 | 0.00 | 0.00 | 0.00 | 27 | 1013.9 | |
| 20260507033535 | 76 | 0.0 | 0.9 | 0.00 | 0.00 | 0.00 | 25 | 1013.8 | |
| 20260507032516 | 76 | 283 | 0.0 | 0.9 | 0.00 | 0.00 | 0.00 | 25 | 1013.7 |
| 20260507031515 | 77 | 0.0 | 0.9 | 0.00 | 0.00 | 0.00 | 24 | 1013.5 | |
| 20260507030515 | 77 | 0.0 | 0.0 | 0.00 | 0.00 | 0.00 | 24 | 1013.4 | |
| 20260507025515 | 78 | 0.0 | 0.9 | 0.00 | 0.00 | 0.00 | 23 | 1013.2 | |
| 20260507024518 | 78 | 281 | 0.0 | 0.9 | 0.00 | 0.00 | 0.00 | 23 | 1013.1 |
| 20260507023521 | 78 | 0.0 | 0.0 | 0.00 | 0.00 | 0.00 | 23 | 1013.0 | |
| 20260507022516 | 79 | 0.0 | 0.9 | 0.00 | 0.00 | 0.00 | 22 | 1013.0 | |
| 20260507021517 | 79 | 269 | 0.9 | 2.6 | 0.00 | 0.00 | 0.00 | 22 | 1012.8 |
| 20260507020516 | 80 | 279 | 0.0 | 0.9 | 0.00 | 0.00 | 0.00 | 21 | 1012.8 |
| 20260507015536 | 81 | 276 | 0.0 | 3.5 | 0.00 | 0.00 | 0.00 | 21 | 1012.7 |
| 20260507014516 | 82 | 299 | 0.9 | 2.6 | 0.00 | 0.00 | 0.00 | 20 | 1012.8 |
| 20260507013538 | 82 | 283 | 0.9 | 3.5 | 0.00 | 0.00 | 0.00 | 20 | 1012.8 |
| 20260507012515 | 82 | 285 | 0.9 | 3.5 | 0.00 | 0.00 | 0.00 | 20 | 1012.7 |
| 20260507011517 | 83 | 292 | 2.6 | 4.3 | 0.00 | 0.00 | 0.00 | 20 | 1012.7 |
| 20260507010555 | 83 | 275 | 0.0 | 1.7 | 0.00 | 0.00 | 0.00 | 20 | 1012.8 |
| 20260507005516 | 83 | 276 | 0.9 | 5.2 | 0.00 | 0.00 | 0.00 | 20 | 1012.7 |
| 20260507004515 | 83 | 308 | 0.0 | 5.2 | 0.00 | 0.00 | 0.00 | 20 | 1012.7 |
| 20260507003515 | 84 | 303 | 1.7 | 5.2 | 0.00 | 0.00 | 0.00 | 20 | 1012.7 |
| 20260507002515 | 83 | 324 | 1.7 | 3.5 | 0.00 | 0.00 | 0.00 | 20 | 1012.6 |
| 20260507001535 | 83 | 340 | 0.9 | 5.2 | 0.00 | 0.00 | 0.00 | 20 | 1012.6 |
| 20260507000536 | 83 | 321 | 2.6 | 7.0 | 0.00 | 0.00 | 0.00 | 20 | 1012.7 |
| 20260506235515 | 83 | 291 | 4.3 | 7.8 | 0.00 | 0.00 | 0.00 | 20 | 1012.6 |
| 20260506234535 | 82 | 308 | 0.9 | 5.2 | 0.00 | 0.00 | 0.00 | 20 | 1012.6 |
| 20260506233516 | 82 | 280 | 0.9 | 6.1 | 0.00 | 0.00 | 0.00 | 20 | 1012.7 |
| 20260506232535 | 83 | 270 | 1.7 | 5.2 | 0.00 | 0.00 | 0.00 | 21 | 1012.8 |
| 20260506231535 | 82 | 310 | 2.6 | 7.8 | 0.00 | 0.00 | 0.00 | 21 | 1012.9 |
| 20260506230536 | 83 | 318 | 1.7 | 4.3 | 0.00 | 0.00 | 0.00 | 20 | 1013.0 |
| 20260506225515 | 82 | 58 | 0.9 | 6.1 | 0.00 | 0.00 | 0.00 | 20 | 1013.1 |
| 20260506224535 | 82 | 4 | 0.9 | 7.8 | 0.00 | 0.00 | 0.00 | 19 | 1013.2 |
| 20260506223516 | 82 | 314 | 2.6 | 7.0 | 0.00 | 0.00 | 0.00 | 20 | 1013.4 |
| 20260506222535 | 82 | 286 | 4.3 | 8.7 | 0.00 | 0.00 | 0.00 | 20 | 1013.5 |
| 20260506221516 | 81 | 303 | 0.9 | 5.2 | 0.00 | 0.00 | 0.00 | 22 | 1013.6 |
| 20260506220515 | 81 | 306 | 0.9 | 6.1 | 0.00 | 0.00 | 0.00 | 22 | 1013.7 |
| 20260506215516 | 81 | 302 | 4.3 | 9.6 | 0.00 | 0.00 | 0.00 | 22 | 1013.8 |
| 20260506214515 | 81 | 255 | 2.6 | 6.1 | 0.00 | 0.00 | 0.00 | 22 | 1014.0 |